Flag for South Korea Weather past 2 weeks in Seoul, South Korea

Now
66 °F

Fog.


Feels Like: 66 °F
Forecast: 64 / 84 °F
Wind: 1 mph from North

Location: Seoul / Kimp'O International Airport

Current Time: Aug 30, 2015 at 6:54:03 AM

Latest Report: Aug 30, 2015 at 6:00 AM


Visibility: 2 mi

Pressure: 29.83 "Hg

Humidity: 94%

Dew point: 64 °F

Location of SeoulLocation

Historic Weather in Seoul — Graph

°F

Seoul temperature yesterday

Maximum temperature yesterday: 84 °F (at 3:00 PM)
Minimum temperature yesterday: 64 °F (at 3:00 AM)
Average temperature yesterday: 74 °F

Past Weeks' High & Low Weather Summary

 TemperatureHumidityPressure
High90 °F (Aug 17, 2:00 PM)94% (Aug 15, 6:00 AM)29.95 "Hg (Aug 15, 6:00 AM)
Low64 °F (Aug 28, 2:00 AM)35% (Aug 27, 1:00 PM)29.56 "Hg (Aug 25, 1:00 PM)
Average77 °F70%29.75 "Hg
* Reported Aug 15 5:00 AM — Aug 30 5:00 AM, Seoul, Weather by CustomWeather, © 2015

Note: Actual official high and low records may vary slightly from our data, if they occured in-between our weather recording intervals... More about our weather records

Advertising

Seoul weather history for previous 24 hours

 ConditionsComfort  
Time TempWeatherWind HumidityBarometerVisibility
5:00 AM
Sun, Aug 30
68 °FFog.1 mph94%29.83 "Hg3 mi
4:00 AM68 °FFog.3 mph88%29.83 "Hg3 mi
3:00 AM68 °FClear.1 mph88%29.83 "Hg4 mi
2:00 AM70 °FClear.1 mph83%29.83 "Hg4 mi
1:00 AM70 °FClear.1 mph83%29.83 "Hg5 mi
12:00 AM70 °FPassing clouds.5 mph78%29.83 "HgN/A
11:00 PM
Sat, Aug 29
72 °FClear.3 mph78%29.80 "Hg10 mi
10:00 PM72 °FClear.2 mph78%29.80 "Hg10 mi
9:00 PM73 °FPassing clouds.1 mph74%29.80 "HgN/A
8:00 PM73 °FPassing clouds.5 mph74%29.77 "HgN/A
7:00 PM77 °FPassing clouds.3 mph57%29.77 "HgN/A
6:00 PM79 °FPassing clouds.7 mph54%29.74 "HgN/A
5:00 PM81 °FPassing clouds.9 mph51%29.74 "HgN/A
4:00 PM82 °FScattered clouds.10 mph51%29.74 "HgN/A
3:00 PM84 °FScattered clouds.5 mph45%29.77 "HgN/A
2:00 PM82 °FScattered clouds.3 mph48%29.77 "HgN/A
1:00 PM82 °FScattered clouds.2 mph51%29.80 "HgN/A
12:00 PM81 °FScattered clouds.5 mph51%29.80 "HgN/A
11:00 AM81 °FScattered clouds.2 mph48%29.83 "HgN/A
10:00 AM79 °FScattered clouds.3 mph54%29.83 "HgN/A
9:00 AM77 °FPassing clouds.3 mph65%29.83 "HgN/A
8:00 AM73 °FPassing clouds.3 mph78%29.83 "Hg4 mi
7:00 AM66 °FPassing clouds.No wind94%29.80 "Hg5 mi
6:00 AM64 °FSunny.1 mph88%29.80 "Hg10 mi
Weather by CustomWeather, © 2015

See weather overviewHow to use our weather pages